Dallesport, WA

6:45 PM PST on December 10, 2016 (GMT -0800)
Columbia Gorge Regional-The Dalles

Weather History for KDLS - November, 2012

Change the Weather History Date:

Tuesday, November 13, 2012

  Actual Average Record
Temperature  
Mean Temperature 47 °F -  
Max Temperature 50 °F 50 °F 71 °F (1999)
Min Temperature 44 °F 36 °F 10 °F (1978)
Degree Days  
Heating Degree Days 18    
Moisture  
Dew Point 43 °F    
Average Humidity 87    
Maximum Humidity 93    
Minimum Humidity 76    
Precipitation  
Precipitation 0.01 in - - ()
Sea Level Pressure  
Sea Level Pressure 30.23 in    
Wind  
Wind Speed 1 mph (East)    
Max Wind Speed 5 mph    
Max Gust Speed -    
Visibility 9 miles    
Events Rain    
Averages and records for this station are not official NWS values.
T = Trace of Precipitation, MM = Missing Value Source: NWS Daily Summary

Daily Weather History Graph

Daily Weather History Graph

Search for Another Location

Airport or City:

Trip Planner

Search our weather history database for the weather conditions in past years. The results will help you decide how hot, cold, wet, or windy it might be!

Date:

Astronomy

Nov. 13, 2012 Rise Set
Actual Time 7:02 AM PST 4:35 PM PST
Civil Twilight 6:30 AM PST 5:07 PM PST
Nautical Twilight 5:54 AM PST 5:43 PM PST
Astronomical Twilight 5:19 AM PST 6:18 PM PST
Moon 6:47 AM PST (11/13) 4:31 PM PST (11/13)
Length of Visible Light 10h 37m
Length of Day
9h 33m
Waning Crescent, 0% of the Moon is Illuminated
Nov 13
Waning Crescent
Nov 13
New
Nov 20
First Quarter
Nov 28
Full
Dec 6
Last Quarter

Hourly Weather History & Observations

Time (PST) Temp. Windchill Dew Point Humidity Pressure Visibility Wind Dir Wind Speed Gust Speed Precip Events Conditions
12:53 AM 45.0 °F - 43.0 °F 93% 30.28 in 10.0 mi Calm Calm - N/A   Overcast
1:53 AM 45.0 °F 43.5 °F 42.1 °F 90% 30.28 in 10.0 mi SSE 3.5 mph - N/A   Overcast
2:53 AM 45.0 °F 43.5 °F 42.1 °F 90% 30.28 in 10.0 mi ESE 3.5 mph - N/A   Overcast
3:53 AM 45.0 °F - 42.1 °F 90% 30.27 in 10.0 mi Calm Calm - N/A   Overcast
4:53 AM 45.0 °F - 42.1 °F 90% 30.27 in 10.0 mi Calm Calm - N/A   Overcast
5:53 AM 45.0 °F - 42.1 °F 90% 30.27 in 10.0 mi Calm Calm - N/A   Overcast
6:53 AM 44.1 °F 42.5 °F 41.0 °F 89% 30.27 in 10.0 mi East 3.5 mph - N/A   Overcast
7:53 AM 45.0 °F 43.5 °F 42.1 °F 90% 30.26 in 10.0 mi East 3.5 mph - N/A   Overcast
8:30 AM 44.6 °F - 42.8 °F 93% 30.26 in 10.0 mi Calm Calm - N/A   Overcast
8:42 AM 46.4 °F - 42.8 °F 87% 30.26 in 10.0 mi Calm Calm - N/A   Overcast
8:53 AM 46.0 °F - 42.1 °F 86% 30.26 in 10.0 mi Calm Calm - N/A   Overcast
9:23 AM 46.4 °F - 42.8 °F 87% 30.25 in 10.0 mi Calm Calm - N/A   Overcast
9:53 AM 46.0 °F - 43.0 °F 89% 30.26 in 9.0 mi Calm Calm - N/A   Overcast
10:16 AM 46.4 °F - 44.6 °F 93% 30.25 in 3.0 mi Calm Calm - N/A   Overcast
10:53 AM 46.9 °F - 43.0 °F 86% 30.26 in 6.0 mi Calm Calm - 0.01 in   Overcast
11:53 AM 48.9 °F - 44.1 °F 83% 30.23 in 10.0 mi Calm Calm - N/A   Overcast
12:07 PM 48.2 °F - 42.8 °F 82% 30.22 in 10.0 mi Calm Calm - N/A   Overcast
12:24 PM 48.2 °F - 42.8 °F 82% 30.21 in 10.0 mi Calm Calm - N/A   Overcast
12:53 PM 48.9 °F - 43.0 °F 80% 30.21 in 10.0 mi Calm Calm - N/A   Overcast
1:32 PM 48.2 °F - 42.8 °F 82% 30.20 in 10.0 mi Calm Calm - N/A   Overcast
1:53 PM 50.0 °F - 43.0 °F 77% 30.20 in 10.0 mi Calm Calm - N/A   Overcast
2:01 PM 50.0 °F - 42.8 °F 76% 30.19 in 10.0 mi Calm Calm - N/A   Overcast
2:53 PM 48.9 °F - 43.0 °F 80% 30.19 in 10.0 mi East 3.5 mph - N/A   Overcast
3:53 PM 48.9 °F - 43.0 °F 80% 30.19 in 10.0 mi Calm Calm - N/A   Overcast
4:49 PM 48.2 °F - 42.8 °F 82% 30.18 in 10.0 mi ENE 4.6 mph - N/A   Overcast
4:53 PM 48.0 °F - 43.0 °F 83% 30.19 in 10.0 mi ENE 4.6 mph - N/A   Overcast
5:53 PM 48.0 °F - 44.1 °F 86% 30.19 in 9.0 mi Calm Calm - 0.00 in Rain Light Rain
6:53 PM 46.9 °F - 44.1 °F 90% 30.19 in 10.0 mi Calm Calm - 0.00 in Rain Light Rain
7:53 PM 46.9 °F - 44.1 °F 90% 30.20 in 9.0 mi Calm Calm - 0.00 in   Overcast
8:53 PM 48.0 °F - 45.0 °F 89% 30.20 in 8.0 mi Calm Calm - N/A   Overcast
9:53 PM 48.0 °F - 45.0 °F 89% 30.20 in 8.0 mi Calm Calm - N/A   Overcast
10:04 PM 46.4 °F - 44.6 °F 93% 30.20 in 7.0 mi Calm Calm - N/A   Overcast
10:53 PM 48.0 °F - 45.0 °F 89% 30.21 in 7.0 mi Calm Calm - N/A   Overcast
11:53 PM 46.9 °F - 45.0 °F 93% 30.22 in 7.0 mi Calm Calm - N/A   Overcast